COSMOS 249 DEB, 18468

Orbit data source: Space-Track

COSMOS 249 DEB, 18468 is space debris in LEO originally from a launch on Sun, 20 Oct 1968 UTC launched from the Tyuratam Missile And Space Complex (TTMTR). Debris objects in space refer to the collection of defunct objects orbiting the Earth. Examples of debris include non-operational satellites, rocket bodies, and fragments generated from explosions, collisions, or faulty payload assembly.

Loading next visibility...
Identifier
18468, 1968-091DD
Orbit
LEO
Country
Flag of CISCIS
Related business
Manufacturer
Unknown
Mission
Spacecraft
Bus & Motor
Unknown
Mass
Unknown
Launch date (UTC)
1968-10-20 (58 years ago)
Launch vehicle
Unknown
Launch site
Tyuratam Missile And Space Complex (TTMTR)
Object type
Payload
Rocket body
Debris
Shape & HBR
Unknown shape, 0.1 m
Radar Cross Section
Small (<0.1 m²)

Expand to show TLE details & history
Last TLE update: 9 hours ago

TLE from 9 hours ago
0 COSMOS 249 DEB
1 18468U 68091DD  26129.64671794 -.00000343  00000-0 -29692-3 0  9998
2 18468  62.2520 241.8225 0778358  79.8339 288.9438 12.82102374594535
Epoch: 2026-05-09T15:31Z
TLE epoch observation values (Epoch: 2026-05-09T15:31:16.430Z)
Latitude
0.00007°
Longitude
141.54292°
Altitude
1,183.052 km
Speed
7.334 km/s
True Right ascension
16h 07m 17s
True Declination
0° 00' 00"
Sunlit
Object was in full shadow at epoch
Visualization orbit readout
Latitude
Unknown
Longitude
Unknown
Altitude
Unknown
Speed
Unknown
Apparent Right ascension
Unknown
Apparent Declination
Unknown
Sunlit
N/A
Visualization observer readout
Local Sidereal Time
08:52:46
Azimuth
Unknown
Elevation
Unknown
Doppler factor
Unknown
Orbital elements
Apogee altitude
1,932.153 km
Perigee altitude
731.899 km
Semi-major axis
7,710.163 km
Eccentricity
0.07784
Inclination
62.252°
RAAN
241.8225°
Arg. of periapsis
79.8339°
True anomaly
280.2662°
Mean anomaly
288.9438°
Eccentric anomaly
284.62871°
Mean motion
3.20588 °/min
Orbital period
112.29 mins
BSTAR
-0.00029692
Loading maneuver chart data...
Computing Atmospheric mass density...

Documentation

Showing up to 5 results
|